EW6020 Weather Reports


time (UTC)temp
C
wind
direction
speed
KPH
gust
KPH
rain 1hr
cm
rain 24hr
cm
rain mn
cm
humidity
%
barometer
mb
20260505163104 12 179 0.0 1.6 0.00 0.00 0.00 90 1014.4
20260505161609 11 177 0.0 3.2 0.00 0.00 0.00 90 1014.4
20260505153053 11 149 3.2 4.8 0.00 0.00 0.00 91 1014.2
20260505151552 11 149 1.6 6.4 0.00 0.00 0.00 92 1014.2
20260505124515 -17 0.0 0.0 0.00 0.00 0.00 1013.1
20260505123008 8 224 0.0 0.0 0.00 0.00 0.00 92 1013.0
20260505121521 10 179 0.0 0.0 0.00 0.00 0.00 93 1013.0
20260505120006 10 179 0.0 0.0 0.00 0.00 0.00 92 1013.0
20260505114505 10 179 1.6 4.8 0.00 0.00 0.00 92 1012.9
20260505113004 10 179 0.0 3.2 0.00 0.00 0.00 92 1012.9
20260505111503 10 179 1.6 4.8 0.00 0.00 0.00 92 1012.9
20260505110130 10 179 1.6 4.8 0.00 0.00 0.00 92 1012.6
20260505101559 10 179 3.2 6.4 0.00 0.00 0.00 92 1012.3
20260505100055 10 179 0.0 3.2 0.00 0.00 0.00 92 1012.3
20260505094609 10 179 0.0 3.2 0.00 0.00 0.00 92 1012.3
20260505093056 10 179 1.6 3.2 0.00 0.00 0.00 92 1012.2
20260505091554 10 179 0.0 3.2 0.00 0.00 0.00 92 1012.1
20260505090048 10 175 3.2 8.0 0.00 0.00 0.00 92 1012.0
20260505084554 10 150 3.2 8.0 0.00 0.00 0.00 92 1011.9
20260505083056 10 150 6.4 9.7 0.00 0.00 0.00 92 1012.0
20260505081554 10 154 3.2 8.0 0.00 0.00 0.00 92 1011.8
20260505080049 10 147 3.2 8.0 0.00 0.00 0.00 91 1011.7
20260505074537 10 179 4.8 8.0 0.00 0.00 0.00 91 1011.4
20260505073038 10 148 6.4 11.3 0.00 0.00 0.00 91 1011.4
20260505071544 10 153 3.2 8.0 0.00 0.00 0.00 90 1011.3
20260505070031 10 150 4.8 11.3 0.00 0.00 0.00 90 1011.1
20260505064533 11 150 6.4 11.3 0.00 0.00 0.00 89 1010.9
20260505063029 11 156 6.4 11.3 0.00 0.00 0.00 88 1010.8
20260505061532 11 155 8.0 14.5 0.00 0.00 0.00 88 1010.7
20260505060034 11 179 6.4 12.9 0.00 0.00 0.00 87 1010.6
20260505054527 12 179 8.0 12.9 0.00 0.00 0.00 87 1010.5
20260505053028 12 179 8.0 14.5 0.00 0.00 0.00 86 1010.4
20260505051528 12 179 8.0 14.5 0.00 0.00 0.00 85 1010.3
20260505041524 15 153 4.8 8.0 0.00 0.00 0.00 80 1009.6
20260505040023 15 179 3.2 8.0 0.00 0.00 0.00 79 1009.3
20260505034524 16 153 8.0 11.3 0.00 0.00 0.00 77 1009.0
20260505033033 16 179 8.0 11.3 0.00 0.00 0.00 76 1008.8
20260505031522 17 179 6.4 11.3 0.00 0.00 0.00 74 1008.6
20260505030021 17 179 8.0 12.9 0.00 0.00 0.00 73 1008.5
20260505024524 18 179 8.0 12.9 0.00 0.00 0.00 71 1008.4
20260505023024 18 150 11.3 16.1 0.00 0.00 0.00 71 1008.2
20260505021519 19 150 11.3 17.7 0.00 0.00 0.00 69 1008.1
20260505020019 20 150 11.3 22.5 0.00 0.00 0.00 67 1008.1
20260505014531 20 179 14.5 22.5 0.00 0.00 0.00 65 1008.0
20260505013018 21 150 16.1 22.5 0.00 0.00 0.00 64 1008.1
20260505011518 21 150 11.3 20.9 0.00 0.00 0.00 64 1008.2
20260505010020 21 168 12.9 24.1 0.00 0.00 0.00 64 1008.3
20260505004518 21 179 11.3 20.9 0.00 0.00 0.00 63 1008.4
20260505003014 22 150 6.4 14.5 0.00 0.00 0.00 62 1008.5
20260505001513 21 179 11.3 17.7 0.00 0.00 0.00 63 1008.5
20260505000014 21 177 12.9 27.4 0.00 0.00 0.00 66 1008.6
20260504234512 21 179 19.3 27.4 0.00 0.00 0.00 66 1008.7
20260504233011 21 149 9.7 20.9 0.00 0.00 0.00 67 1008.8
20260504231511 21 150 14.5 20.9 0.00 0.00 0.00 66 1008.9
20260504230010 21 150 11.3 19.3 0.00 0.00 0.00 67 1009.1
20260504224507 21 176 8.0 19.3 0.00 0.00 0.00 66 1009.1
20260504223006 21 150 9.7 19.3 0.00 0.00 0.00 67 1009.3
20260504221505 21 150 11.3 17.7 0.00 0.00 0.00 69 1009.4
20260504220004 21 178 6.4 20.9 0.00 0.00 0.00 69 1009.6
20260504214503 20 179 9.7 20.9 0.00 0.00 0.00 68 1009.8
20260504213002 20 150 12.9 20.9 0.00 0.00 0.00 68 1009.9
20260504211503 20 150 9.7 20.9 0.00 0.00 0.00 70 1010.1
20260504210106 19 149 6.4 16.1 0.00 0.00 0.00 71 1010.4
20260504204616 19 150 3.2 14.5 0.00 0.00 0.00 73 1010.5
20260504203129 18 150 6.4 16.1 0.00 0.00 0.00 72 1010.7
20260504201556 18 150 8.0 16.1 0.00 0.00 0.00 72 1010.8
20260504200055 17 148 4.8 12.9 0.00 0.00 0.00 75 1010.9
20260504194554 17 150 3.2 16.1 0.00 0.00 0.00 75 1011.0
20260504193054 16 150 4.8 16.1 0.00 0.00 0.00 77 1011.1
20260504191556 16 151 4.8 17.7 0.00 0.00 0.00 78 1011.2
20260504190055 15 178 3.2 11.3 0.00 0.00 0.00 79 1011.3
20260504184551 15 173 8.0 16.1 0.00 0.00 0.00 81 1011.3
20260504183051 15 179 6.4 14.5 0.00 0.00 0.00 81 1011.4
20260504181549 15 180 4.8 11.3 0.00 0.00 0.00 81 1011.4
20260504180053 14 172 1.6 8.0 0.00 0.00 0.00 82 1011.4
20260504174547 13 179 3.2 8.0 0.00 0.00 0.00 84 1011.4
20260504173058 13 178 6.4 11.3 0.00 0.00 0.00 86 1011.4
20260504171545 13 148 4.8 6.4 0.00 0.00 0.00 87 1011.4